STARLINK-1156, 45054

Orbit data source: Space-Track

STARLINK-1156, 45054 is a payload satellite owned by SpaceX/Seattle (US) in LEO that was launched on Wed, 29 Jan 2020 UTC via an FALCON 9 launch vehicle from the Air Force Eastern Test Range (AFETR). Payload-class satellites include a variety of spacecraft equipped with specific instruments for various scientific and technological missions. These include communications satellites like Starlink; space stations such as the ISS; scientific satellites like the Hubble; Earth observation satellites from companies like Planet Labs, Umbra, and HawkEye 360; GPS; miniature CubeSats for education and research; and military/defense satellites.

Loading next visibility...
Identifier
45054, 2020-006L
Orbit
LEO
Country
Flag of USUS
Related business
Manufacturer
SpaceX/Seattle
Mission
Operational Commercial Communications
Bus & Motor
STARLINK, Unknown motor
Mass
260 kg wet, ~248 kg dry
Launch date (UTC)
2020-01-29 (6 years ago)
Launch vehicle
FALCON 9
Launch site
Air Force Eastern Test Range (AFETR)
Object type
Payload
Rocket body
Debris
Shape & HBR
Box + 1 Pan, 10.1 m
Radar Cross Section
13.562 m², Large (>1 m²)

Expand to show TLE details & history
Last TLE update: 20 hours ago

TLE from 20 hours ago
0 STARLINK-1156
1 45054U 20006L   25286.57515067  .00012252  00000-0  83991-3 0  9990
2 45054  53.0528 227.0419 0001797 104.5821 255.5367 15.06402123314288
Epoch: 2025-10-13T13:48Z
TLE epoch observation values (Epoch: 2025-10-13T13:48:13.017Z)
Latitude
-0.00007°
Longitude
-2.38835°
Altitude
548.395 km
Speed
7.589 km/s
True Right ascension
15h 08m 10s
True Declination
0° 00' 00"
Sunlit
Object was in daylight at epoch
Visualization orbit readout
Latitude
Unknown
Longitude
Unknown
Altitude
Unknown
Speed
Unknown
Apparent Right ascension
Unknown
Apparent Declination
Unknown
Sunlit
N/A
Visualization observer readout
Local Sidereal Time
04:42:02
Azimuth
Unknown
Elevation
Unknown
Doppler factor
Unknown
Orbital elements
Apogee altitude
548.721 km
Perigee altitude
546.232 km
Semi-major axis
6,925.613 km
Eccentricity
0.00018
Inclination
53.0528°
RAAN
227.0419°
Arg. of periapsis
104.5821°
True anomaly
255.51676°
Mean anomaly
255.5367°
Eccentric anomaly
255.52673°
Mean motion
3.76579 °/min
Orbital period
95.6 mins
BSTAR
0.00083991
Loading maneuver chart data...
Computing Atmospheric mass density...

Documentation

Showing up to 5 results
|